Temperature
22 23 23 23 23 23 23 23 22 22 22 21 21 21 21 20 20 20 20 19 19 18 18 17 17 17 17 17 17 17 17 17 16 16 16 16 16 15 15 15 15 15 15 15
23 23 23 22 22 22 22 22 22 22 21 21 21 21 22 20 20 19 19 19 19 18 18 17 17 17 17 17 17 17 17 16 16 16 16 16 16 15 15 15 15 15 15 15
23 22 22 22 22 22 22 22 22 22 21 21 21 21 22 21 20 19 18 18 18 18 18 17 17 16 16 16 16 16 16 16 16 16 16 16 15 15 15 15 15 15 15 15
22 22 22 22 22 22 22 22 22 21 22 22 21 21 22 22 21 20 19 18 18 17 17 17 16 16 16 16 16 16 16 16 16 16 16 15 15 15 15 15 15 14 14 14
22 21 21 21 22 21 22 21 21 21 22 22 22 22 22 22 21 21 20 18 18 17 17 16 16 16 16 16 16 16 16 16 16 16 15 15 15 15 15 14 14 14 14 14
22 21 21 21 21 21 21 21 21 21 22 21 21 21 21 22 21 21 20 19 18 17 16 16 16 16 16 16 16 16 15 16 15 15 15 15 15 15 14 14 14 14 14 14
21 21 21 21 21 21 21 21 21 21 21 21 21 20 21 21 21 20 20 19 18 17 16 16 15 15 16 16 15 15 15 15 15 15 15 15 14 14 14 14 14 14 14 13
21 21 21 21 21 21 21 22 21 20 21 21 21 21 22 21 20 19 19 18 17 17 16 16 15 15 15 15 15 15 15 15 14 14 14 14 14 14 14 14 14 13 13 13
21 21 21 20 21 21 21 21 21 21 21 21 21 21 21 20 20 19 18 18 17 16 16 15 15 15 15 15 15 15 15 14 14 14 14 14 14 14 13 13 13 13 13 13
21 21 21 20 20 20 21 21 21 21 20 20 21 21 21 20 20 20 19 17 17 16 15 15 15 15 15 15 14 14 14 14 14 13 13 13 13 13 13 13 13 13 13 12
21 21 20 20 20 20 20 20 20 20 20 20 20 21 21 21 20 20 19 17 16 16 15 15 15 15 14 14 14 14 14 14 13 13 13 13 13 13 13 13 12 12 12 12
20 21 20 20 20 19 20 20 20 20 20 20 20 20 21 20 19 19 18 17 16 15 15 14 14 14 14 14 14 14 13 13 13 13 13 13 13 13 12 12 12 12 12 12
20 20 20 20 19 19 19 19 19 20 20 19 19 20 21 20 19 18 17 17 16 15 14 14 14 14 14 13 13 13 13 13 13 13 12 12 12 12 12 12 12 11 11 11
19 20 20 19 20 20 19 19 18 19 19 19 20 20 20 20 19 18 17 16 15 15 14 14 13 13 13 13 13 13 13 13 12 12 12 12 12 12 12 12 11 11 11 11
19 19 20 19 19 19 19 19 18 18 19 19 20 19 20 19 19 18 16 16 15 14 14 13 13 13 13 12 12 12 12 12 12 12 11 11 11 11 11 11 11 11 11 11
19 19 19 18 18 18 18 18 18 18 18 19 19 19 19 18 17 17 16 15 14 14 13 13 13 12 12 12 12 12 12 12 11 11 11 11 11 11 11 11 11 10 10 10
18 18 18 18 18 18 18 18 18 18 18 18 18 18 18 17 17 16 15 14 14 13 13 12 12 12 12 12 12 12 11 11 11 11 10 10 10 10 10 10 10 10 10 9
18 18 18 18 18 17 19 18 17 17 17 18 17 17 17 16 15 15 14 14 13 13 12 12 12 12 11 11 11 11 11 11 10 10 10 10 10 10 10 10 10 9 9 9
17 17 17 17 17 17 18 17 16 17 17 17 16 16 15 15 15 15 14 13 13 12 12 12 11 11 11 11 11 11 10 10 10 10 9 9 9 9 9 9 9 9 8 8
15 16 17 17 16 17 17 17 15 16 16 16 16 15 15 14 16 16 13 13 12 12 12 11 11 11 11 10 10 10 10 10 9 9 9 9 9 8 8 8 8 8 8 8
15 16 16 16 16 17 17 15 15 16 16 15 15 14 14 14 15 14 13 12 12 11 11 11 11 10 10 10 10 9 9 9 9 9 9 8 8 8 8 7 7 7 7 7
16 16 16 16 15 16 15 15 15 16 15 14 14 14 13 13 13 12 12 12 11 11 11 11 10 10 10 10 9 9 9 9 8 8 8 7 7 7 7 7 7 7 6 6
15 16 16 16 16 15 14 14 14 13 13 13 13 13 12 12 12 12 11 11 11 10 10 10 10 10 9 9 9 8 8 8 8 8 7 7 7 7 6 6 6 6 6 6
15 13 14 15 15 14 13 13 12 12 12 12 12 12 12 12 11 11 11 11 10 10 10 9 9 9 9 9 8 8 8 7 7 7 7 6 6 6 6 6 5 5 5 5
14 13 14 14 15 13 13 12 12 12 12 12 11 12 11 11 11 11 10 10 10 9 9 9 8 8 8 8 8 8 7 7 6 6 6 6 6 6 5 5 5 5 5 4
13 13 13 14 14 14 13 12 12 11 11 11 11 11 11 11 11 10 10 10 9 9 9 8 8 8 8 8 7 7 7 6 6 5 5 5 5 5 5 5 4 4 4 4
Wind_Speed
1 3 3 3 1 1 3 3 3 2 2 3 4 4 3 3 4 4 5 4 4 3 2 2 1 1 1 1 1 1 1 1 1 1 0 0 1 1 2 2 3 3 3 3
4 2 2 2 3 3 4 4 3 2 2 3 3 4 4 4 5 5 5 5 4 4 3 2 2 2 1 1 1 1 1 1 1 0 0 0 0 1 2 2 3 3 3 3
3 2 3 3 3 3 3 4 3 3 2 4 4 5 5 4 4 4 5 5 5 4 4 4 3 3 2 1 1 1 1 1 1 1 1 1 1 1 1 1 2 2 2 2
2 2 3 3 2 4 3 3 4 4 5 3 4 4 3 4 4 4 5 5 5 5 5 4 4 3 3 2 1 1 0 0 0 1 1 1 1 0 1 1 1 1 2 2
2 2 3 3 2 3 2 1 3 5 6 6 5 5 2 2 3 3 4 5 5 5 5 5 4 4 3 2 2 1 1 1 1 1 1 1 0 0 0 0 0 0 1 1
1 1 2 2 1 2 3 4 3 4 6 7 5 5 3 1 3 3 3 4 4 4 5 5 4 4 3 2 2 2 1 1 1 1 1 1 1 1 0 1 1 0 0 1
3 3 1 1 2 3 4 5 4 4 5 3 1 4 3 2 2 4 3 3 3 4 5 5 5 5 4 3 3 2 2 2 1 1 1 0 1 1 1 1 1 1 1 0
4 3 2 1 3 3 4 5 4 3 4 3 3 5 1 1 2 2 3 2 2 4 5 5 5 5 4 4 3 3 3 2 2 1 1 1 1 1 1 2 2 2 2 1
3 2 2 0 1 3 3 4 4 5 5 6 4 3 2 1 1 2 2 1 1 3 4 4 4 5 4 4 4 4 3 3 2 2 1 1 1 1 1 2 2 2 2 2
3 4 2 1 3 1 3 3 4 5 4 5 5 5 3 1 2 2 2 2 1 2 3 3 4 4 4 4 4 4 4 3 2 2 2 1 2 2 2 2 2 2 2 2
5 5 3 3 4 4 3 4 4 5 5 5 5 2 1 1 2 3 3 2 2 2 2 2 3 3 4 3 4 4 4 3 3 2 2 2 2 2 2 2 2 3 3 2
4 5 5 4 1 2 5 5 6 6 6 6 7 4 2 1 2 3 4 3 2 2 2 2 2 2 3 3 3 4 4 3 3 3 3 3 2 3 3 3 3 3 3 3
3 5 6 5 5 4 4 5 6 7 7 8 9 5 2 2 4 4 4 4 2 2 2 2 2 2 3 3 3 3 4 4 3 3 3 3 3 3 4 4 3 3 3 3
3 6 7 8 5 3 6 6 7 9 9 10 12 11 8 8 8 7 6 4 2 2 2 2 2 2 2 3 3 3 3 3 3 3 3 3 4 4 4 4 4 3 3 3
3 7 8 9 7 7 9 10 10 12 14 14 13 13 12 10 8 7 6 4 3 3 3 3 2 2 3 3 3 3 3 3 3 4 4 4 3 3 3 4 4 3 3 3
3 6 7 9 8 8 11 12 12 13 14 14 14 14 9 7 6 6 5 4 4 3 3 3 3 3 3 3 3 3 3 3 3 4 4 3 3 3 3 3 3 3 3 3
4 6 7 8 6 8 10 9 10 9 9 10 12 10 7 6 6 6 5 4 4 3 3 3 3 3 3 3 3 3 2 3 3 3 3 3 3 3 3 3 3 3 3 3
6 7 6 7 6 9 3 2 3 6 7 8 9 8 7 7 6 5 4 4 4 3 3 3 3 3 3 3 2 2 2 2 2 3 3 3 3 3 3 3 3 3 3 3
6 6 5 6 8 9 5 2 3 6 7 5 7 7 6 5 5 3 2 4 4 4 3 3 2 3 3 2 2 2 2 2 2 3 3 4 4 4 3 3 4 3 3 4
3 5 6 6 7 7 3 2 2 5 6 2 4 4 4 3 5 4 4 4 4 3 2 2 2 2 2 2 2 2 3 3 3 3 4 4 4 4 4 4 4 3 3 4
4 5 8 9 9 6 3 1 1 4 4 3 3 4 3 4 6 6 5 4 4 3 2 1 1 2 2 2 3 3 3 3 3 3 3 3 4 4 4 3 3 3 3 4
5 5 6 6 8 6 2 2 3 4 5 4 5 5 5 6 6 6 5 4 3 3 2 1 1 1 2 2 3 4 3 3 2 2 3 3 4 3 3 3 3 3 3 3
6 6 4 5 5 3 2 4 4 6 7 7 7 7 7 7 7 7 6 5 4 3 2 2 2 2 2 2 3 4 3 3 3 3 3 3 3 3 3 3 3 3 3 3
5 3 5 7 8 7 7 7 7 7 8 9 8 8 8 8 8 7 6 5 4 3 2 2 2 2 2 2 2 3 3 3 3 4 4 4 3 3 3 3 2 2 2 3
5 4 7 10 9 8 7 7 8 8 8 8 8 8 8 8 8 7 6 5 4 3 3 3 3 3 3 3 3 3 3 3 4 4 4 4 3 3 3 3 2 3 3 3
6 7 7 8 8 8 8 7 7 8 8 8 8 8 8 7 7 7 6 5 4 4 3 3 3 3 3 3 3 3 3 3 4 4 3 3 3 3 3 3 2 1 3 3
Wind_Direction
122 163 156 156 162 172 175 184 182 170 167 212 222 236 224 212 217 227 218 214 212 205 183 179 184 193 202 190 177 143 168 157 151 135 106 68 70 52 52 49 42 47 53 56
166 143 108 124 144 168 196 206 198 181 181 236 246 254 237 216 224 233 235 225 219 207 194 186 187 177 193 170 163 169 187 178 157 160 147 124 95 65 61 59 59 54 56 51
162 118 136 162 174 190 210 235 230 237 217 218 257 246 222 204 218 227 237 237 229 221 217 203 194 185 178 184 187 220 232 192 186 170 136 124 127 148 111 89 70 42 44 46
152 136 165 175 204 239 232 243 238 231 240 243 250 276 241 220 220 220 227 229 227 223 220 211 200 195 191 192 203 216 225 221 152 174 186 214 252 310 350 29 65 79 53 41
149 156 197 220 239 237 267 213 226 236 254 264 251 266 263 196 233 232 226 226 225 221 217 208 204 202 196 180 176 184 150 102 88 171 188 234 249 329 31 31 42 66 73 40
137 158 244 269 256 214 175 185 193 225 248 254 260 259 278 239 278 283 254 227 221 216 211 206 196 189 183 172 170 174 166 135 120 143 177 209 221 235 280 324 337 321 98 51
175 168 166 205 191 172 216 236 234 227 226 243 194 249 264 357 336 307 296 256 224 207 201 196 190 188 183 179 179 180 176 166 163 163 156 164 233 254 257 274 284 292 278 268
222 201 178 208 247 234 228 250 258 273 268 266 211 243 255 28 345 320 303 283 226 200 196 194 194 194 192 188 188 186 185 184 181 190 203 206 210 253 277 281 283 280 280 276
242 219 137 240 285 248 221 238 276 275 276 271 243 242 243 126 354 349 338 326 239 202 193 194 195 199 199 195 194 195 196 197 204 214 226 236 239 239 261 278 282 281 283 287
259 248 204 173 180 99 277 226 228 252 267 266 258 252 252 225 318 337 328 313 269 212 200 192 196 199 202 202 198 195 203 207 215 233 242 248 248 245 249 267 271 272 278 288
243 246 214 197 224 236 194 210 237 250 260 270 275 259 53 303 317 315 314 308 262 224 214 209 206 204 199 198 199 202 207 212 218 230 244 246 247 247 243 253 265 270 271 267
227 253 250 237 206 306 250 248 242 255 256 254 271 277 102 279 313 316 311 305 263 229 221 211 210 204 202 202 205 210 214 217 224 231 242 250 252 246 243 246 254 261 262 258
211 243 253 229 198 195 224 238 244 255 265 257 258 265 119 277 294 305 307 302 270 222 210 202 198 205 211 216 218 219 218 218 222 226 236 246 251 252 247 251 253 254 259 256
241 245 253 264 283 260 245 240 237 241 253 260 258 273 284 291 297 303 305 296 269 233 221 217 221 224 229 231 229 226 226 223 222 228 238 251 257 254 250 250 251 252 254 253
246 254 256 267 273 266 264 261 246 243 253 266 275 279 289 298 300 297 296 287 271 254 245 239 235 236 236 241 244 235 228 225 225 229 241 255 266 264 260 256 253 251 249 251
252 258 260 259 259 260 265 265 258 253 256 260 270 278 294 302 303 298 293 280 268 261 264 260 250 245 245 246 252 246 233 228 231 238 246 258 268 268 264 264 261 255 248 248
230 247 260 265 265 270 264 262 249 245 248 256 267 282 304 303 300 298 294 284 274 268 272 269 262 253 255 255 256 250 249 231 235 250 264 267 269 272 271 270 263 255 254 253
238 240 251 268 266 258 287 38 266 248 259 264 274 293 298 295 300 297 293 289 282 277 271 265 264 264 263 256 250 250 243 241 245 258 272 277 276 275 276 271 266 264 262 259
238 232 241 253 262 271 275 280 258 253 269 280 279 293 305 308 290 289 322 304 289 283 278 271 273 273 269 254 240 235 229 251 269 283 283 279 272 273 275 270 270 273 272 266
193 225 239 246 259 266 304 10 300 260 263 314 295 298 302 297 286 315 343 319 309 306 296 292 285 278 273 269 246 237 246 259 276 284 286 290 280 273 274 276 274 275 269 270
195 214 233 245 255 264 324 24 212 245 318 8 314 299 281 288 311 328 324 313 309 309 307 299 275 274 285 282 253 246 253 264 280 288 297 302 301 289 282 280 275 275 272 270
226 226 231 240 246 258 80 157 237 302 339 320 304 290 279 289 309 313 306 301 298 296 295 288 280 295 308 296 263 255 260 271 275 282 294 306 312 310 300 288 282 281 274 269
234 243 248 239 257 316 226 253 298 315 303 302 297 290 282 282 289 293 290 289 288 288 288 288 287 301 312 304 283 267 269 269 268 273 285 296 305 310 306 294 283 277 269 271
231 250 250 254 263 274 275 274 284 289 291 295 292 289 281 279 282 282 281 278 274 276 275 276 283 299 310 312 299 283 279 272 272 277 283 290 293 300 303 300 292 279 273 278
249 230 249 260 273 283 273 273 279 285 287 289 287 283 278 277 278 277 274 264 258 261 266 269 275 292 303 308 305 300 284 276 277 277 280 286 291 294 295 294 295 288 285 292
236 238 252 267 280 280 286 294 290 284 283 285 287 285 279 275 275 273 267 257 252 254 256 267 274 281 291 297 300 306 296 281 279 279 283 286 286 286 285 287 288 309 288 312
Height
1529 1528 1529 1529 1529 1530 1530 1533 1536 1537 1538 1539 1539 1539 1540 1542 1543 1543 1543 1544 1545 1546 1547 1547 1547 1547 1548 1548 1548 1548 1548 1547 1547 1547 1546 1546 1546 1545 1544 1544 1543 1542 1541 1541
1528 1530 1531 1531 1532 1532 1532 1534 1536 1536 1538 1538 1538 1537 1537 1539 1540 1541 1541 1542 1543 1544 1545 1545 1546 1546 1546 1547 1547 1547 1547 1547 1546 1546 1546 1545 1545 1545 1544 1543 1543 1542 1542 1541
1529 1532 1533 1533 1533 1533 1534 1534 1535 1537 1537 1537 1538 1536 1534 1535 1538 1540 1540 1541 1541 1542 1543 1543 1544 1545 1545 1545 1546 1546 1546 1546 1546 1545 1545 1545 1544 1544 1544 1543 1543 1542 1542 1541
1530 1532 1533 1533 1533 1533 1535 1533 1534 1536 1537 1535 1537 1538 1530 1531 1533 1536 1537 1538 1539 1540 1541 1542 1542 1543 1544 1544 1544 1545 1545 1545 1545 1544 1544 1544 1544 1544 1543 1543 1542 1542 1541 1540
1531 1533 1533 1533 1533 1533 1534 1535 1534 1534 1534 1535 1533 1535 1530 1529 1531 1531 1534 1536 1537 1538 1539 1540 1541 1541 1542 1543 1543 1543 1543 1544 1543 1543 1543 1543 1543 1543 1542 1542 1541 1541 1540 1540
1532 1534 1533 1533 1534 1534 1535 1535 1535 1534 1533 1539 1533 1536 1533 1527 1529 1529 1531 1533 1534 1536 1537 1538 1539 1540 1540 1541 1541 1542 1542 1542 1542 1542 1542 1542 1542 1541 1541 1540 1540 1540 1539 1539
1533 1532 1533 1534 1533 1534 1534 1534 1539 1540 1539 1536 1533 1536 1532 1526 1528 1530 1530 1531 1533 1534 1535 1536 1536 1537 1538 1539 1540 1540 1541 1541 1541 1541 1540 1540 1540 1540 1539 1539 1539 1538 1538 1537
1535 1535 1532 1533 1532 1533 1532 1532 1540 1546 1541 1533 1533 1533 1526 1527 1529 1530 1530 1531 1531 1532 1533 1534 1535 1536 1536 1537 1538 1538 1539 1539 1539 1539 1539 1539 1538 1538 1537 1537 1537 1536 1536 1535
1533 1534 1532 1534 1534 1532 1533 1532 1531 1534 1534 1536 1529 1527 1525 1526 1527 1529 1529 1530 1530 1531 1532 1532 1533 1534 1535 1535 1536 1536 1537 1537 1537 1537 1537 1537 1536 1536 1535 1535 1534 1534 1533 1533
1530 1534 1532 1534 1534 1535 1533 1531 1533 1535 1540 1539 1532 1529 1526 1524 1525 1526 1528 1528 1529 1530 1530 1531 1532 1532 1533 1534 1534 1534 1535 1535 1535 1535 1535 1534 1534 1533 1533 1532 1532 1531 1531 1530
1531 1533 1533 1533 1533 1532 1534 1535 1533 1532 1533 1538 1536 1530 1521 1523 1524 1526 1527 1528 1528 1529 1529 1530 1530 1531 1531 1532 1532 1532 1532 1532 1533 1532 1532 1532 1531 1531 1530 1529 1529 1528 1528 1527
1532 1531 1531 1531 1532 1533 1531 1530 1531 1536 1534 1533 1533 1530 1521 1523 1525 1526 1527 1527 1527 1528 1528 1528 1529 1529 1529 1530 1530 1530 1530 1530 1530 1530 1529 1529 1528 1528 1527 1527 1526 1526 1525 1524
1532 1532 1534 1532 1535 1534 1532 1531 1531 1530 1530 1531 1533 1528 1521 1523 1524 1525 1526 1526 1526 1526 1527 1527 1527 1527 1527 1527 1528 1528 1528 1528 1528 1527 1527 1526 1526 1525 1524 1524 1523 1523 1522 1521
1533 1529 1532 1534 1529 1528 1530 1531 1531 1530 1530 1527 1524 1522 1519 1520 1522 1524 1524 1524 1524 1525 1525 1525 1525 1525 1525 1525 1525 1525 1525 1525 1525 1524 1524 1524 1523 1521 1521 1520 1520 1519 1519 1518
1532 1529 1527 1527 1527 1528 1528 1528 1528 1528 1524 1524 1520 1519 1518 1519 1521 1522 1522 1522 1522 1523 1523 1523 1523 1523 1523 1523 1523 1523 1522 1522 1522 1521 1521 1520 1519 1519 1518 1517 1516 1516 1515 1515
1530 1528 1527 1528 1527 1528 1528 1524 1523 1524 1522 1520 1519 1518 1517 1519 1520 1520 1520 1520 1520 1520 1521 1521 1521 1520 1520 1520 1520 1520 1519 1519 1519 1519 1518 1517 1516 1515 1514 1513 1513 1512 1512 1512
1528 1528 1529 1525 1525 1526 1524 1519 1519 1520 1519 1519 1519 1517 1517 1518 1518 1519 1519 1519 1519 1519 1519 1519 1518 1518 1518 1518 1517 1517 1517 1517 1516 1516 1515 1514 1513 1512 1511 1510 1509 1509 1508 1508
1528 1527 1527 1525 1527 1530 1518 1518 1518 1518 1518 1518 1517 1517 1518 1519 1519 1518 1518 1518 1517 1517 1517 1516 1516 1516 1516 1516 1515 1515 1514 1514 1514 1513 1512 1511 1509 1508 1507 1506 1506 1505 1505 1505
1528 1527 1526 1525 1525 1520 1516 1518 1519 1518 1516 1517 1517 1517 1518 1518 1517 1516 1516 1516 1516 1516 1515 1515 1514 1514 1514 1513 1513 1512 1512 1512 1511 1510 1509 1508 1506 1505 1504 1503 1502 1502 1501 1501
1529 1527 1526 1526 1527 1524 1517 1518 1519 1519 1516 1516 1517 1517 1517 1517 1513 1513 1515 1515 1514 1514 1513 1513 1512 1512 1511 1511 1510 1510 1509 1509 1508 1507 1506 1504 1503 1502 1501 1500 1499 1498 1498 1497
1526 1526 1526 1524 1523 1517 1516 1519 1519 1521 1516 1517 1516 1516 1517 1516 1515 1515 1514 1513 1512 1511 1511 1510 1510 1510 1509 1509 1508 1507 1507 1506 1506 1504 1503 1501 1500 1499 1498 1496 1495 1495 1494 1494
1521 1522 1522 1522 1523 1521 1518 1519 1519 1517 1517 1516 1516 1516 1515 1515 1514 1513 1512 1511 1510 1509 1509 1508 1508 1507 1507 1506 1506 1505 1504 1504 1503 1501 1500 1498 1497 1496 1495 1493 1492 1491 1491 1490
1520 1519 1517 1518 1518 1517 1518 1518 1518 1517 1516 1515 1515 1514 1513 1513 1511 1510 1510 1509 1508 1507 1506 1506 1505 1505 1504 1504 1503 1503 1502 1501 1499 1498 1497 1496 1494 1493 1492 1491 1489 1488 1488 1487
1519 1521 1519 1517 1515 1516 1517 1516 1516 1516 1515 1513 1512 1511 1510 1509 1508 1508 1507 1506 1505 1504 1504 1503 1503 1502 1501 1501 1500 1499 1498 1497 1497 1496 1495 1493 1492 1490 1489 1488 1486 1485 1485 1484
1517 1518 1516 1514 1513 1514 1513 1513 1513 1512 1511 1510 1509 1508 1507 1506 1505 1504 1503 1503 1502 1502 1501 1501 1500 1499 1499 1498 1497 1496 1495 1494 1493 1493 1491 1490 1489 1488 1486 1485 1483 1482 1482 1481
1515 1515 1514 1511 1512 1512 1511 1510 1510 1509 1508 1507 1506 1504 1503 1503 1502 1501 1500 1500 1499 1499 1498 1498 1497 1496 1496 1495 1494 1493 1492 1491 1490 1489 1488 1487 1486 1485 1483 1482 1481 1479 1479 1477